This demonstration page uses our WeatherBlox Daily Observations layout. Learn more.

Left ArrowRight Arrow

41.55636, -103.73856

Hourly Observations for September 6, 2015

Temp ( °F °C ) Dew Point ( °F °C ) Humidity (%) Winds ( mph kmh ) Pressure ( in mb ) Visibility ( mi km ) Precip ( " mm )
12:53 am 00:53 Mostly Clear 73 22.8 43 6.1 34 34 WNW 13 20 29.74 1007 10 16.0934 0 0
1:53 am 01:53 Clear 65 18.3 47 8.3 52 52 NW 9 15 29.76 1008 10 16.0934 0 0
2:53 am 02:53 Partly Cloudy 61 16.1 48 8.9 63 63 NNW 6 9 29.77 1008 10 16.0934 0 0
3:53 am 03:53 Cloudy 63 17.2 48 8.9 58 58 WNW 5 7 29.79 1009 10 16.0934 0 0
4:53 am 04:53 Partly Cloudy 60 15.6 49 9.4 67 67 NNW 5 7 29.82 1010 10 16.0934 0 0
5:53 am 05:53 Clear 59 15 48 8.9 67 67 N 9 15 29.88 1012 10 16.0934 0 0
6:53 am 06:53 Sunny 56 13.3 48 8.9 75 75 NW 7 11 29.93 1014 10 16.0934 0 0
7:53 am 07:53 Sunny 63 17.2 51 10.6 65 65 Calm 29.96 1015 10 16.0934 0 0
8:53 am 08:53 Sunny 67 19.4 52 11.1 59 59 WSW 3 6 29.98 1015 10 16.0934 0 0
9:53 am 09:53 Sunny 70 21.1 52 11.1 53 53 W 7 11 29.99 1016 10 16.0934 0 0
10:53 am 10:53 Sunny 73 22.8 52 11.1 48 48 W 6 9 29.99 1016 10 16.0934 0 0
11:53 am 11:53 Sunny 76 24.4 51 10.6 42 42 WNW 8 13 29.98 1015 10 16.0934 0 0
12:53 pm 12:53 Sunny 79 26.1 48 8.9 34 34 NW 8 13 29.94 1014 10 16.0934 0 0
1:53 pm 13:53 Sunny 83 28.3 47 8.3 28 28 VRB 7 11 29.92 1013 10 16.0934 0 0
2:53 pm 14:53 Sunny 85 29.4 40 4.4 20 20 W 6 9 29.91 1013 10 16.0934 0 0
3:53 pm 15:53 Mostly Sunny 84 28.9 30 -1.1 14 14 S 5 7 29.91 1013 10 16.0934 0 0
4:53 pm 16:53 Sunny 83 28.3 35 1.7 18 18 S 8 13 29.91 1013 10 16.0934 0 0
5:53 pm 17:53 Sunny 83 28.3 36 2.2 19 19 S 6 9 29.91 1013 10 16.0934 0 0
6:53 pm 18:53 Sunny 78 25.6 42 5.6 28 28 SE 7 11 29.92 1013 10 16.0934 0 0
7:53 pm 19:53 Mostly Clear 75 23.9 45 7.2 34 34 S 7 11 29.92 1013 10 16.0934 0 0
8:53 pm 20:53 Mostly Cloudy 73 22.8 47 8.3 40 40 N 7 11 29.92 1013 10 16.0934 0.01 0.254
9:06 pm 21:06 Mostly Cloudy with Thunderstorms 72 22.2 48 8.9 43 43 undefined N/A 29.85 1011 10 16.0934 0 0
9:53 pm 21:53 Cloudy with Nearby Thunderstorms 66 18.9 55 12.8 68 68 SE 10 17 29.95 1014 10 16.0934 0.02 0.508
10:12 pm 22:12 Cloudy 64 18 57 14 78 78 E 8 13 29.91 1013 10 16.0934 0 0
10:53 pm 22:53 Clear 63 17.2 55 12.8 76 76 NNE 6 9 29.96 1015 10 16.0934 0 0
11:29 pm 23:29 Mostly Cloudy with Light Rain 65 18.3 55 12.8 70 70 NE 8 13 29.94 1014 10 16.0934 0 0.0254
11:53 pm 23:53 Mostly Clear 63 17.2 55 12.8 76 76 E 7 11 29.95 1014 10 16.0934 0 0.0254

Powered by AerisWeather